Regional Weather Roundup
Issued by NWS

Home | Current Version | Previous Version | Graphics & Text | Print | Product List | Glossary On
Versions: 1 2 3 4 5 6 7 8 9 10 11 12 13 14 15 16 17 18 19 20 21 22 23 24 25 26 27 28 29 30 31 32 33 34 35 36 37 38 39 40 41 42 43 44 45 46 47 48 49 50
488
ASUS43 KMPX 270910
RWRMN
WEATHER ROUNDUP FOR MINNESOTA
NATIONAL WEATHER SERVICE TWIN CITIES/CHANHASSEN MN
400 AM CDT SAT AUG 27 2016


NOTE: "FAIR" INDICATES FEW OR NO CLOUDS BELOW 12,000 FEET WITH NO
SIGNIFICANT WEATHER AND/OR OBSTRUCTIONS TO VISIBILITY. N/A MEANS
CURRENT SKY AND/OR WEATHER CONDITIONS ARE NOT AVAILABLE.

MNZ060>063-068>070-271000-
   Twin Cities Metro

CITY           SKY/WX    TMP DP  RH WIND       PRES   REMARKS
TWIN CITIES    CLOUDY    64  57  78 SE6       30.07F
ST PAUL        CLOUDY    63  58  83 CALM      30.07F
CRYSTAL        CLOUDY    63  55  75 SE3       30.06F
BLAINE         PTCLDY    63  57  82 SE3       30.07F
LAKEVILLE      CLOUDY    59  59 100 CALM      30.07S
EDEN PRAIRIE   CLOUDY    64  57  78 SE5       30.06F
LAKEVILLE      CLOUDY    59  59 100 CALM      30.07S
SOUTH ST PAUL  CLOUDY    64  58  83 CALM      30.07F
LAKE ELMO      MOCLDY    61  59  94 E5        30.08F
$$
MNZ001>005-007-008-013>017-022>024-027-028-271000-
   Northwest Minnesota

CITY           SKY/WX    TMP DP  RH WIND       PRES   REMARKS
BEMIDJI        CLOUDY    60  55  82 SE5       30.04F
HALLOCK        CLEAR     52  50  93 S7        29.97F
ROSEAU         CLEAR     55  50  82 S6        30.00F
WARROAD        CLOUDY    59  55  88 S3        30.01F
THIEF RVR FALL CLOUDY    57  53  86 SE7       30.03S
CROOKSTON      CLOUDY    57  55  94 SE3       30.01S
FOSSTON        CLOUDY    57  54  88 SE5       30.04S
DETROIT LAKES  CLOUDY    63  55  77 S7        30.05S
MOORHEAD       CLOUDY    61  57  88 SE8       30.01F
PARK RAPIDS    CLOUDY    60  54  80 SE7       30.05F
MAHNOMEN       CLOUDY    60  56  87 CALM      30.03S
$$
MNZ006-009>011-018-025>026-271000-
   North Central Minnesota

CITY           SKY/WX    TMP DP  RH WIND       PRES   REMARKS
BAUDETTE       CLOUDY    57  53  86 S6        30.02F
FLAG ISLAND    CLOUDY    63  54  72 CALM      29.99F HAZE
INTL FALLS     CLOUDY    56  52  86 CALM      30.05S
WASKISH        CLOUDY    61  55  82 CALM      30.04F
BIG FORK       CLOUDY    57  55  94 CALM      30.08S
LONGVILLE      MOCLDY    57  55  94 CALM      30.07F
GRAND RAPIDS   CLOUDY    59  55  87 SE5       30.10F
CRANE LAKE     CLOUDY    55  54  94 S3        30.09S
ORR            CLOUDY    57  52  82 CALM      30.07R
COOK           CLOUDY    59  54  82 CALM      30.10R
WALKER         CLOUDY    59  54  83 S3        30.06S
$$
MNZ012-019>021-037-271000-
   Northeast Minnesota

CITY           SKY/WX    TMP DP  RH WIND       PRES   REMARKS
DULUTH         PTCLDY    59  54  83 CALM      30.11S
ELY            CLOUDY    55  52  88 CALM      30.10S
HIBBING        CLOUDY    53  52  96 CALM      30.10S
EVELETH        CLOUDY    54  53  97 CALM      30.11F
DULUTH HARBOR  CLOUDY    63  55  77 CALM      30.10F
TWO HARBORS    PTCLDY    55  50  82 CALM      30.09F
SILVER BAY     MOCLDY    50  48  93 CALM      30.10S
GRAND MARAIS     N/A     54  52  93 NW5       30.11S
G MARAIS ARPRT PTCLDY    46  43  87 CALM      30.15S
$$
MNZ029>031-032-039>041-046>048-054>057-064-271000-
   West Central Minnesota

CITY           SKY/WX    TMP DP  RH WIND       PRES   REMARKS
FERGUS FALLS   CLOUDY    61  57  88 S6        30.05S
WHEATON        CLOUDY    61  59  94 SE8       30.04S
MORRIS         CLOUDY    61  57  88 CALM      30.03F
ALEXANDRIA     CLOUDY    60  57  89 SE6       30.07S
ELBOW LAKE     CLOUDY    60  57  92 E6        30.04F
GLENWOOD       DRIZZLE   59  57  94 E3        30.06F
APPLETON       CLOUDY    63  57  82 SE5       30.02F
BENSON         CLOUDY    61  55  82 S6        30.04F
ORTONVILLE     CLOUDY    61  57  88 CALM      30.03R
MADISON        CLOUDY    61  59  94 SE3       30.03S
WILLMAR        MOCLDY    61  57  88 SE3       30.06F
$$
MNZ033>034-036-042>043-049>051-058-059-271000-
   Central Minnesota

CITY           SKY/WX    TMP DP  RH WIND       PRES   REMARKS
ST CLOUD       CLOUDY    59  58  96 E3        30.07F
SAUK CENTRE    RAIN      59  57  94 E3        30.07S
PAYNESVILLE    CLOUDY    61  57  84 SE6       30.07S
AITKIN         CLOUDY    59  54  82 CALM      30.07F
PINE RIVER     CLOUDY    57  55  94 CALM      30.10F
BRAINERD       CLOUDY    59  56  89 SE5       30.07F
STAPLES        CLOUDY    57  54  88 SE3       30.06F
LONG PRAIRIE   MOCLDY    57  55  94 E5        30.07S
LITTLE FALLS   CLOUDY    59  54  82 CALM      30.08S
LITCHFIELD     LGT RAIN  63  59  88 CALM      30.07S
BUFFALO        CLOUDY    61  56  82 CALM      30.08R
MAPLE LAKE     CLOUDY    62  59  88 CALM      30.08R
HUTCHINSON     CLOUDY    61  59  94 CALM      30.07S
$$
MNZ037-044-045-052-053-271000-
   East Central Minnesota

CITY           SKY/WX    TMP DP  RH WIND       PRES   REMARKS
PRINCETON      CLOUDY    61  55  82 CALM      30.08S
MORA           CLOUDY    54  54 100 CALM      30.10F
CAMBRIDGE      CLOUDY    63  54  72 CALM      30.07S
RUSH CITY      MOCLDY    57  55  92 CALM      30.09S
MOOSE LAKE     CLOUDY    54  54 100 CALM      30.09S
HINCKLEY       FAIR      54  54 100 CALM      30.10S
CLOQUET        CLOUDY    55  54  94 CALM      30.11S
MCGREGOR       CLOUDY    55  54  94 SE3       30.10S
$$
MNZ071>073-080-081-089-090-097-098-271000-
   Southwest Minnesota

CITY           SKY/WX    TMP DP  RH WIND       PRES   REMARKS
MONTEVIDEO     CLOUDY    61  59  94 S5        30.05F
GRANITE FALLS  CLOUDY    63  60  91 SE6       30.05F
CANBY          MOCLDY    62  60  93 CALM      30.04F
MARSHALL       CLOUDY    61  59  93 S10       30.04F
REDWOOD FALLS  CLOUDY    61  57  87 E3        30.03F
OLIVIA         CLOUDY    61  55  82 E3        30.04F
PIPESTONE      CLOUDY    61  57  88 E5        30.03F
WINDOM         CLOUDY    63  57  82 SE3       30.04F
WORTHINGTON    LGT RAIN  61  60  97 SE6       30.04F
JACKSON          N/A     61  57  88 SE3       30.04F
TRACY          HVY RAIN  61  59  92 S3        30.05F
SLAYTON        CLOUDY    59  59 100 CALM      30.06S
$$
MNZ065>067-074>077-082>085-091>093-271000-
   South Central Minnesota

CITY           SKY/WX    TMP DP  RH WIND       PRES   REMARKS
MANKATO        CLOUDY    63  57  82 E5        30.05F
NEW ULM          N/A     63  59  88 NE5       30.04F
ST JAMES       CLOUDY    57  55  94 E3        30.04F
FAIRMONT       CLOUDY    61  59  93 SE6       30.04F
GLENCOE        CLOUDY    61  60  97 CALM      30.06S
FARIBAULT      CLOUDY    63  59  88 CALM      30.07S
OWATONNA       CLOUDY    63  57  82 CALM      30.05F
WASECA         CLOUDY    59  55  88 E5        30.06F
ALBERT LEA     CLOUDY    61  59  94 CALM      30.05F
$$
MNZ078>079-086>088-094>096-271000-
   Southeast Minnesota

CITY           SKY/WX    TMP DP  RH WIND       PRES   REMARKS
ROCHESTER      CLOUDY    59  59 100 E5        30.08F
RED WING       CLOUDY    63  59  88 CALM      30.06F
STANTON        CLOUDY    63  59  88 CALM      30.06F
DODGE CENTER   CLOUDY    57  55  94 CALM      30.07F
WINONA         CLOUDY    61  59  94 SE3       30.08S
AUSTIN         CLOUDY    57  55  94 NE3       30.05F
PRESTON        CLOUDY    59  57  93 SE9       30.06F
$$
ABBREVIATIONS USED IN REMARKS
   TC - TEMPERATURES IN CELSIUS
  WCI - WIND CHILL INDEX
   HX - HEAT INDEX
  VSB - VISIBILITY
$$




USA.gov is the U.S. government's official web portal to all federal, state and local government web resources and services.